Regional Weather Roundup
Issued by NWS

Home | Current Version | Previous Version | Text Only | Print | Product List | Glossary On
Versions: 1 2 3 4 5 6 7 8 9 10 11 12 13 14 15 16 17 18 19 20 21 22 23 24 25 26 27 28 29 30 31 32 33 34 35 36 37 38 39 40 41 42 43 44 45 46 47 48 49 50
000
ASCA44 KEWX 032220
RWRMX

LATIN AMERICA AND CARIBBEAN REGIONAL WEATHER ROUNDUP
NATIONAL WEATHER SERVICE AUSTIN/SAN ANTONIO TX
400 PM CST TUE MAR 03 2015

NOTE: "FAIR" INDICATED FEW OR NO CLOUDS BELOW 12,000 FEET WITH NO
SIGNIFICANT WEATHER AND/OR OBSTRUCTIONS TO VISIBILITY.

BAJA CALIFORNIA

CITY           SKY/WX    TMP DP  RH WIND       PRES   REMARKS
LORETO         PTSUNNY   68  63  83 CALM      29.85F
LA PAZ         CLOUDY    73  64  73 SW9       29.90
MEXICALI       MOSUNNY   64  43  45 NW8       29.88
S.J. DEL CABO  PTSUNNY   86  54  32 SE13G24   29.84F
TIJUANA        MOSUNNY   61  45  55 NW12      29.92F

NORTHWESTERN MEXICO

CITY           SKY/WX    TMP DP  RH WIND       PRES   REMARKS
CULIACAN       PTSUNNY   86  64  48 W7        29.86
DURANGO        SUNNY     75  21  13 SW23      30.03F
GUAYMAS        MOSUNNY   72  57  60 S12       29.79
HERMOSILLO     MOSUNNY   73  45  35 S7        29.86
CD. JUAREZ     PTSUNNY   61  48  63 W7        29.81
LOS MOCHIS     CLOUDY    73  57  56 NW9       29.88F
OBREGON        LGT RAIN  61  59  94 NW6       29.86

NORTHEASTERN MEXICO

CITY           SKY/WX    TMP DP  RH WIND       PRES   REMARKS
CHIHUAHUA      PTSUNNY   72  36  26 SW24      29.87
MATAMOROS      MOSUNNY   77  70  78 SE17      29.85
MONCLOVA       SUNNY     82  54  36 NE10      29.70F HAZE
MONTERREY      PTSUNNY   68  59  73 E6        29.80F
NUEVO LAREDO   CLOUDY    66  57  72 SE9       29.82
PIEDRAS NEGRAS PTSUNNY   59  50  72 SE7       29.82
REYNOSA        MOSUNNY   81  61  50 SE12G23   29.77
SALTILLO       SUNNY     86  46  25 MISG      29.94F
TORREON        MOSUNNY   91  41  17 S10       29.85F
CD. VICTORIA   SUNNY     79  61  53 SE10G22   29.80

WESTERN MEXICO

CITY           SKY/WX    TMP DP  RH WIND       PRES   REMARKS
AGUASCALIENTES MOSUNNY   77  23  13 S17       30.10
COLIMA         SUNNY     86  57  37 SW14      29.89F
DEL BAJIO      MOSUNNY   81  36  19 SW12      30.15F
GUADALAJARA    SUNNY     82  27  13 W17       30.02
MANZANILLO     SUNNY     81  70  69 S6        29.77F
MAZATLAN       SUNNY     81  63  54 S12       29.82F
P. VALLARTA    SUNNY     86  55  35 S7        29.80F
URUAPAN        SUNNY     77  48  36 S12       30.07F

CENTRAL MEXICO

CITY           SKY/WX    TMP DP  RH WIND       PRES   REMARKS
CUERNAVACA     SUNNY     84  36  17 CALM      29.97F
MEXICO CITY    SUNNY     79  32  18 SE9       30.14F
MORELIA        MOSUNNY   79  36  21 N3        30.08
POZA RICA      PTSUNNY   84  66  54 SE7       29.85F
PUEBLA         SUNNY     75  39  27 S12       30.17F
S. LUIS POTOSI MOSUNNY   82  19   9 SW12      30.04F
TAMPICO        SUNNY     77  66  69 SE14      29.84F
TOLUCA         MOSUNNY   72  27  18 NE5       30.23F

SOUTHERN MEXICO

CITY           SKY/WX    TMP DP  RH WIND       PRES   REMARKS
ACAPULCO       SUNNY     84  73  70 W9        29.77F HX  91
B. DE HUATULCO SUNNY     88  73  62 S9        29.83  HX  96
OAXACA         SUNNY     82  34  17 SE15      30.04F
P. ESCONDIDO   SUNNY     81  75  83 S9        29.96S
VERACRUZ       MOSUNNY   82  68  61 E12       29.84F
ZIHUATANEJO    SUNNY     86  72  62 SW12      29.81F HX  92

YUCATAN PENINSULA

CITY           SKY/WX    TMP DP  RH WIND       PRES   REMARKS
CAMPECHE       MOSUNNY   81  73  78 NW12G23   29.85F
CANCUN         PTSUNNY   82  70  65 SE13      29.98F
CHETUMAL       MOSUNNY   84  75  74 SE18      29.92F HX  92
CD. DEL CARMEN MOSUNNY   90  63  40 E8        29.86  HX  90
COZUMEL        MOSUNNY   79  70  73 E12       29.98F
MERIDA         PTSUNNY   91  59  33 SE13      29.89F HX  90
MINATITLAN     SUNNY     81  72  74 N17       29.81
TAPACHULA      MOSUNNY   88  72  58 W12       29.79F HX  94
TUX. GUTIERREZ MOSUNNY   91  55  29 CALM      29.80F
VILLAHERMOSA   SUNNY     90  64  43 E20       29.85F HX  91

CENTRAL AMERICA

CITY           SKY/WX    TMP DP  RH WIND       PRES   REMARKS
BELIZE CITY    MOSUNNY   84  73  70 E12       29.93F HX  91
MANAGUA        MOCLDY    90  64  43 E18       29.74S HX  91

CARIBBEAN

CITY           SKY/WX    TMP DP  RH WIND       PRES   REMARKS
ARUBA          MOSUNNY   82  73  74 E18       29.86S
KINGSTON       PTSUNNY   86  68  54 S7        29.92S
NASSAU         MOSUNNY   77  66  69 E10       30.14S
SAN JUAN       PTCLDY    79  66  65 NE15      30.04R
SANTO DOMINGO  PTCLDY    82  70  65 NE9       29.97S
ST. KITTS      PTCLDY    79  68  69 E16       30.00S
ST. MAARTEN    PTCLDY    75  68  78 E16       30.00S

$$



USA.gov is the U.S. government's official web portal to all federal, state and local government web resources and services.